Torna al catalogo

STARLINK-32806

AttivoComunicazioniVLEO
NORAD 62735·PAYLOAD·🇺🇸 United States

Lanciato Jan 21, 2025 da Cape Canaveral Space Force Station

Loading…

Prossimi Passaggi (prossime 24 ore)

TLE

AggiornatoSource: CelesTrak SupGP

Epoca: Sep 15, 2026, 03:24 UTC

1 62735C 25014A   26258.14215278  .00032619  00000+0  11816-2 0  2585
2 62735  42.9993 164.6477 0001396 277.0067 296.5633 15.27559046    13

Traccia STARLINK-32806 in tempo reale con AllMySat

Download on the App Store